COSMOS 1234

Satellite information

Favourite Embed

Satellite Type and Status

PAYLOADIN ORBIT

Key statistics

Satellite COSMOS 1234 at a glance.

Uptime

16433

Days in orbit

Revolutions

≈ 12.6

Per day

Orbit

LEO

Low Earth Orbit

Inclination

74.0

Latest

Satellite identification and parameters

Extended collection of information and parameters for COSMOS 1234.

Object identification

Identified? True

Debris? False

Object name: COSMOS 1234

International designator: 1980-102G

Object number (NORAD): 12113

Object ID (CCSDS): 12113

Country: COMMONWEALTH OF INDEPENDENT STATES (CIS)

Current information (Y/N): Y

RCS size: MEDIUM

Orbital parameters

Period: 114.585 minutes

Inclination: 73.9938 deg

SMA: 7814.693 km

Apoapsis: 1464.014 km

Periapsis: 1409.102 km

RAAN: 249.822 deg

Eccentricy: 0.0035134

Argument of periapsis: 345.2336 deg

Mean anomaly: 189.9577 deg

Mean motion: 12.56709434 rev/day

Mean motion (dot): 0.00000008 rev/day2

B* drag term: 0.00014885 1/REarth

Two-line elements (TLE)

Creation date: Dec. 19, 2025, 9:16 p.m.

Reference frame: TEME

Reference center: EARTH

Epoch: Dec. 19, 2025, 11:48 a.m. UTC

TLE line 0: 0 COSMOS 1234

TLE line 1: 1 12113U 80102G 25353.49173595 .00000008 00000-0 14885-3 0 9997

TLE line 2: 2 12113 73.9938 249.8220 0035134 345.2336 189.9577 12.56709434 63745

Live tracking on map

Real-time ground track for satellite COSMOS 1234.

In-orbit conjunctions

There are no conjunctions computed for COSMOS 1234, at the moment. Check back to stay up to date, as we update our databases every day.

Go to all conjunctions

Associated space launch

Military communications satellites

COSMOS 1234 was lifted into orbit during the mission ‘Kosmos-3M | Strela-1M 201-208’, on board a Kosmos-3M space rocket.

The launch took place on Dec. 23, 1980, 10:48 p.m. from 132/1 (132L).

For more information about the launch, click the button.

Launch to space Kosmos-3M | Strela-1M 201-208
Kosmos-3M | Strela-1M 201-208

Agency: N/A

Status: Launch Successful

Launch date: Dec. 23, 1980, 10:48 p.m. UTC

Rocket: Kosmos-3M

Launch pad: 132/1 (132L)

Location: Plesetsk Cosmodrome, Russian Federation

...

Latest news about this satellite

There are no fresh news available about this satellite. Check back as we update our databases every day.


Newsletter sign-up

Weekly statistics, charts and insights to help you stay on top of the space industry.